Location: Observatoire
(46.1952°N, 5.3391°E)
Time: 23:59:06
(UTC+01:00)

Courier 1B Rocket - All Passes

Search period start: 16 February 2026 00:00
Search period end: 26 February 2026 00:00
Orbit: 920 x 1201 km, 28.2° (Epoch: 16 February)

Date Brightness Start Highest point End Pass type
(mag) Time Alt. Az. Time Alt. Az. Time Alt. Az.
16 Feb - 20:56:37 10° SSW 20:59:33 13° SSE 21:02:33 10° SE visible
16 Feb - 22:47:58 10° SW 22:51:44 16° S 22:55:37 10° SSE night (unlit)
17 Feb - 00:42:28 10° SSW 00:43:57 11° SSW 00:45:27 10° S night (unlit)
17 Feb - 19:57:13 10° S 19:58:44 11° SSE 20:00:17 10° SSE visible
17 Feb - 21:47:13 10° SSW 21:50:51 16° S 21:54:35 10° SE visible
17 Feb - 23:40:19 10° SW 23:43:03 13° SSW 23:45:51 10° SSE night (unlit)
18 Feb - 20:46:43 10° SSW 20:50:00 15° S 20:53:20 10° SE visible
18 Feb - 22:38:58 10° SW 22:42:10 14° S 22:45:28 10° SSE visible
19 Feb - 19:46:33 10° SSW 19:49:11 13° S 19:51:50 10° SE visible
19 Feb - 21:37:56 10° SW 21:41:19 15° S 21:44:46 10° SSE visible
20 Feb - 18:47:11 10° S 18:48:23 11° SSE 18:49:35 10° SSE visible
20 Feb - 20:37:08 10° SSW 20:40:28 15° S 20:43:51 10° SSE visible
20 Feb - 22:30:32 10° SSW 22:32:37 12° SSW 22:34:43 10° S visible
21 Feb - 19:36:35 10° SSW 19:39:39 14° S 19:42:44 10° SE visible
21 Feb - 21:29:00 10° SW 21:31:46 13° S 21:34:37 10° SSE visible
22 Feb - 18:36:18 10° SSW 18:38:50 13° S 18:41:22 10° SE visible
22 Feb - 20:27:51 10° SW 20:30:57 14° S 20:34:05 10° SSE visible
23 Feb - 17:36:41 10° S 17:38:03 11° SSE 17:39:23 10° SSE daylight
23 Feb - 19:26:57 10° SSW 19:30:08 14° S 19:33:20 10° SSE visible
23 Feb - 21:20:48 10° SSW 21:22:14 11° SSW 21:23:41 10° S visible
24 Feb - 18:26:15 10° SSW 18:29:19 14° S 18:32:22 10° SE daylight
24 Feb - 20:18:54 10° SW 20:21:26 13° S 20:23:58 10° SSE visible
25 Feb - 17:25:48 10° SSW 17:28:30 13° S 17:31:10 10° SE daylight
25 Feb - 19:17:36 10° SW 19:20:37 14° S 19:23:38 10° SSE visible
